Location: Anse des Blances-Sablons
(48.3760°N, 4.7742°W)
Time: 09:59:21
(UTC+00:00)

Daily predictions for brighter satellites

Satellite Brightness Start Highest point End
(mag) Time Altitude Azimuth Time Altitude Azimuth Time Altitude Azimuth
Cosmos 1725 Rocket 4.3 20:30:37 10° SSW 20:36:55 77° W 20:43:17 10° N
IRS-1A Rocket 4.4 20:31:26 10° SSE 20:37:02 77° ENE 20:42:49 10° NNW
Cosmos 841 Rocket 4.4 20:35:07 10° NNW 20:40:04 48° WSW 20:44:59 10° S
SPOT 1/Viking Rocket 3.6 20:37:20 10° SSE 20:42:29 70° ENE 20:47:37 10° N
Cosmos 2098 Rocket 4.2 20:39:10 10° NNW 20:42:29 33° W 20:45:20 10° SSW
Cosmos 1812 3.7 20:39:56 10° SSW 20:43:38 50° WNW 20:47:22 10° N
Cosmos 1782 4.4 20:40:03 10° SW 20:43:44 38° WNW 20:47:29 10° N
USA 186 4.3 20:42:53 10° WSW 20:43:59 12° W 20:45:05 10° WNW
ATLAS 2AS CENTAUR R/B 4.5 20:41:50 10° SE 20:45:14 13° ESE 20:48:36 10° ENE
CARTOSAT-1 4.1 20:42:35 10° SE 20:46:40 43° ENE 20:50:47 10° N
NOSS 3-4 (A) 4.0 20:43:53 10° S 20:48:52 32° ESE 20:54:10 10° NE
NOSS 3-4 (C) 4.0 20:43:58 10° S 20:48:58 32° ESE 20:54:16 10° NE
Tsikada Rocket 4.4 20:44:18 10° NNW 20:50:36 67° W 20:56:47 10° S
IRAS Rocket 4.3 20:48:38 10° NNE 20:54:16 71° ESE 20:59:53 10° S
Aureole 1 Rocket 4.1 20:52:59 10° SE 20:54:57 15° ESE 20:56:52 10° ENE
Cosmos 2219 3.4 20:52:59 10° NNW 20:58:37 62° ENE 21:03:54 11° SE
Cosmos 2208 Rocket 4.1 20:53:21 10° NNW 20:58:51 86° ENE 21:04:16 10° SSE
Meteor 2-6 Rocket 4.2 20:53:57 10° S 20:59:21 89° E 21:04:51 10° NNE
MetOp-B 4.2 20:56:56 10° SSE 21:02:17 80° ENE 21:07:40 10° NNW
CZ-4B R/B 1.6 20:59:24 10° N 21:02:38 69° WNW 21:05:48 10° SSW
USA 267 4.3 20:57:48 10° ENE 21:03:54 44° N 21:10:02 10° WNW
H-2A R/B 2.9 21:00:25 10° N 21:04:24 51° WNW 21:08:22 10° SW
ARGOS Delta rocket 4.2 21:00:14 10° NNE 21:05:44 85° ESE 21:11:13 10° S
Cosmos 1536 3.2 21:03:21 10° N 21:07:16 50° ENE 21:10:43 13° SSE
Cosmos 389 Rocket 3.4 21:04:17 10° N 21:07:30 34° ENE 21:10:02 14° SE
SPOT 5 3.6 21:03:09 11° SE 21:08:00 46° ENE 21:12:57 10° N
Cosmos 2082 4.4 21:03:31 10° NNW 21:08:53 42° NE 21:13:46 12° ESE
NOSS 3-2 (C) 4.3 21:02:45 10° NW 21:10:14 71° SW 21:18:24 11° SSE
Cosmos 1184 Rocket 4.0 21:09:25 15° SE 21:10:59 22° E 21:13:24 10° NE
Helios 1A Rocket 3.2 21:08:57 13° SSE 21:12:25 54° ENE 21:16:20 10° N
Cosmos 1328 Rocket 3.5 21:09:56 10° S 21:14:14 89° E 21:18:35 10° N
Cosmos 405 2.8 21:12:44 10° NNW 21:16:09 90° WSW 21:19:10 13° S
Cosmos 968 Rocket 3.4 21:11:20 10° SSW 21:16:30 86° ESE 21:21:39 10° NNE
Cosmos 1515 3.9 21:13:27 10° S 21:17:05 50° E 21:20:45 10° NNE
ERS-1 Rocket 3.4 21:13:55 13° SE 21:18:07 48° ENE 21:22:58 10° N
ATLAS 3B R/B 4.3 21:13:25 10° NW 21:19:44 32° NNE 21:26:18 10° E
Cosmos 1743 2.7 21:18:59 10° N 21:22:46 63° E 21:25:38 16° SSE
ISS -2.7 21:20:03 10° WNW 21:23:18 45° N 21:26:34 10° ENE
Cosmos 2263 Rocket 3.4 21:19:41 10° NNW 21:24:38 31° NE 21:29:18 11° ESE
BREEZE-M (TANK) 4.0 21:21:52 10° WSW 21:25:51 83° SSE 21:42:01 10° ENE
Cosmos 2344 3.8 21:21:14 10° S 21:28:17 44° ESE 21:35:22 10° NE
SL-4 R/B 2.1 21:25:59 10° WNW 21:30:34 89° SW 21:34:00 16° ESE
USA 238 DEB 4.4 21:23:29 10° NW 21:30:35 56° WSW 21:37:15 13° SSE
USA 238 4.3 21:23:36 10° NW 21:30:42 56° WSW 21:37:21 13° SSE
Cosmos 1933 Rocket 3.6 21:26:22 10° N 21:30:50 69° E 21:34:14 17° SSE
Ariane Rocket 3.9 21:27:59 10° S 21:32:51 46° W 21:37:45 10° NNW
Terra 2.2 21:29:55 17° SE 21:33:23 50° ENE 21:38:00 10° N
Resurs 01 Rocket 3.2 21:29:48 10° SSW 21:33:44 31° W 21:37:42 10° NNW
Cosmos 2227 Rocket 2.4 21:28:11 10° NNW 21:33:51 70° WSW 21:38:31 15° SSE
CENTAUR R/B 4.1 21:26:24 10° NW 21:34:02 42° WSW 21:42:17 10° S
Cosmos 1975 4.5 21:31:57 10° NNE 21:35:08 21° ENE 21:37:13 15° ESE
SPOT 3 Rocket 3.8 21:30:26 11° S 21:35:21 69° WSW 21:40:31 10° NNW
Cosmos 1340 2.5 21:38:01 14° S 21:41:13 75° E 21:44:58 10° NNE
Cosmos 2369 4.0 21:40:08 11° S 21:45:18 46° ESE 21:50:42 10° NE
Cosmos 1656 4.3 21:40:15 10° SW 21:45:44 57° WNW 21:51:12 10° NNE
Cosmos 1980 Rocket 2.6 21:43:23 14° S 21:47:47 42° ESE 21:53:05 10° NE
Cosmos 1470 Rocket 4.5 21:47:53 10° NNW 21:52:02 44° W 21:55:52 12° SSW
CZ-2C R/B 3.8 21:47:54 10° NNE 21:52:39 67° ESE 21:56:25 16° S
Cosmos 1354 Rocket 4.4 21:51:12 18° S 21:54:47 46° ESE 21:59:50 10° NNE
Cosmos 2360 4.2 21:49:44 10° SSW 21:55:25 83° ESE 22:01:09 10° NNE
Cosmos 1464 Rocket 4.1 21:49:57 10° SSW 21:56:11 80° W 22:02:23 10° N
SJ 16-02 2.0 21:56:08 25° SSE 21:57:56 36° ESE 22:01:56 10° NE
Cosmos 2228 Rocket 3.5 21:55:45 23° SSE 21:58:12 46° E 22:02:35 10° NNE
ASTRO F (AKARI) 4.3 21:58:13 29° S 21:59:35 68° WSW 22:02:41 10° NNW
Meteor 1-27 Rocket 4.1 21:56:07 10° SSW 22:01:49 67° WNW 22:07:41 10° N
Cosmos 1486 Rocket 4.1 21:59:04 10° SSW 22:04:23 79° WNW 22:09:42 10° NNE
SAR-Lupe-4 4.2 22:02:47 10° NNE 22:06:11 39° E 22:07:07 32° SE
Spot 2 Rocket 3.9 22:03:06 17° S 22:06:53 56° W 22:11:52 10° NNW
Cosmos 1515 Rocket 4.4 22:04:26 10° SSW 22:08:37 48° WNW 22:12:54 10° N
Cosmos 1697 Rocket 2.9 22:03:13 10° SSW 22:08:52 76° WNW 22:14:34 10° NNE
USA 215 3.6 22:03:47 10° ENE 22:09:55 41° SE 22:16:02 10° SSW
Cosmos 2297 Rocket 3.8 22:06:33 10° NW 22:11:07 26° WSW 22:15:39 10° SSW
EXPRESS MD2 3.6 22:06:49 10° WNW 22:11:30 41° SW 22:12:19 34° S
Cosmos 1092 Rocket 4.0 22:05:23 10° N 22:11:36 71° ENE 22:15:26 24° SSE
Cosmos 773 Rocket 4.0 22:08:49 10° NNW 22:14:06 79° ENE 22:16:57 28° SSE
Timation 2 Rocket 4.1 22:07:42 10° NNW 22:14:16 85° WSW 22:18:32 24° SSE
ARIANE 5 R/B 2.7 22:13:52 27° S 22:16:20 79° WSW 22:20:52 10° NNW
CSL-04 DEB 4.3 22:13:38 10° NNE 22:17:33 63° ESE 22:19:15 32° S
Meteor 2-9 Rocket 4.3 22:11:51 10° NNW 22:17:41 80° W 22:21:19 23° S
Nadezhda 4 Rocket 4.3 22:11:46 10° NNW 22:17:57 64° W 22:22:36 18° S
Cosmos 1634 Rocket 4.2 22:14:36 24° SSE 22:18:15 55° E 22:24:17 10° NNE
Cosmos 1869 Rocket 3.6 22:15:23 10° NNW 22:19:53 79° W 22:22:12 28° S
SAR-Lupe-1 3.9 22:23:20 10° NNE 22:26:57 80° ESE 22:28:13 38° S
SL-16 R/B 3.3 22:27:38 23° ESE 22:28:51 25° ESE 22:33:24 10° NE
ATLAS CENTAUR R/B 4.3 22:29:21 10° NNW 22:32:35 17° NNE 22:35:46 10° ENE
Cosmos 1503 Rocket 4.2 22:27:40 12° SSW 22:32:38 76° WNW 22:37:59 10° NNE
Cosmos 44 Rocket 3.8 22:28:29 10° NNW 22:33:07 51° NE 22:35:37 25° ESE
ATLAS 2AS CENTAUR R/B 3.0 22:27:21 11° SSW 22:34:49 59° ESE 22:42:13 10° NE
Cosmos 1378 2.9 22:34:17 43° S 22:35:22 81° E 22:39:03 10° NNE
Cosmos 1346 Rocket 3.2 22:35:44 40° SE 22:36:37 48° E 22:40:30 10° NNE
RESURS DK-1 2.5 22:36:47 41° SSE 22:37:41 50° ESE 22:41:42 10° NE
Cosmos 1538 Rocket 4.4 22:32:36 10° NNW 22:37:48 55° ENE 22:40:18 29° SE
Cosmos 921 Rocket 3.9 22:33:52 10° NNW 22:38:09 43° WSW 22:40:13 26° SSW
Aureole 1 Rocket 4.2 22:35:58 10° WSW 22:38:52 28° WNW 22:41:32 10° N
NOSS 3-4 (A) 4.0 22:33:42 10° WSW 22:39:23 57° NW 22:45:36 10° NE
NOSS 3-4 (C) 4.0 22:33:46 10° WSW 22:39:27 58° NW 22:45:42 10° NE
Cosmos 2026 Rocket 4.0 22:37:29 10° N 22:43:38 81° W 22:47:06 28° S
ADEOS Rocket 4.4 22:40:52 14° ESE 22:44:28 25° ENE 22:49:07 10° N
Cosmos 2278 3.6 22:42:30 24° SSW 22:45:59 73° ESE 22:51:40 10° NNE
USA 267 3.4 22:40:37 13° ESE 22:46:27 72° NNE 22:52:59 10° NW
Cosmos 1707 Rocket 3.5 22:46:00 38° S 22:47:40 80° E 22:52:07 10° NNE
Cosmos 482 Debris 4.2 22:48:59 10° WNW 22:52:20 81° SSW 22:54:21 34° ESE
SL-24 R/B - RUBIN 2 3.7 22:49:05 10° NW 22:53:27 67° NE 22:55:13 35° ESE
Okean 1-7 4.5 22:54:08 23° ESE 22:54:48 23° E 22:58:18 10° NE
Cosmos 2292 Rocket 4.0 22:56:41 10° NNW 22:59:38 31° W 23:00:08 29° WSW
ISS -3.7 22:56:59 10° WNW 23:00:21 75° NNE 23:00:55 56° E
Cosmos 2360 Rocket 3.6 23:00:23 21° ESE 23:01:07 21° E 23:05:15 10° NE
Cosmos 158 Rocket 4.0 22:57:11 10° NNW 23:02:16 72° WSW 23:04:12 38° S
Meteor 2-15 Rocket 4.4 23:05:19 33° S 23:08:13 80° E 23:14:19 10° NNE
Cosmos 2263 Rocket 2.5 23:03:25 10° NW 23:08:51 53° WSW 23:10:59 34° SSW
SL-4 R/B 3.4 23:06:04 10° W 23:09:26 25° SW 23:09:26 25° SW
Cosmos 1441 Rocket 3.2 23:09:48 56° ESE 23:10:03 58° E 23:13:44 10° NNE
Terra 3.7 23:08:48 14° SW 23:11:24 22° W 23:15:06 10° NW
ATLAS 3B R/B 3.0 23:04:13 10° NW 23:11:35 78° NE 23:16:23 25° SE
Cosmos 1975 3.9 23:07:53 10° NNW 23:11:39 37° W 23:12:54 29° SW
Spot 4 3.8 23:11:37 42° SSE 23:13:13 75° ENE 23:18:02 10° N
NOSS 2-1 (E) 4.4 23:15:20 24° ENE 23:15:20 24° ENE 23:17:01 10° NE
Cosmos 1066 Rocket 4.4 23:12:30 37° SSE 23:14:44 63° E 23:20:23 10° NNE
ALOS 2 3.1 23:15:18 38° ESE 23:16:33 50° ENE 23:20:49 10° N
Iridium 51 4.1 23:16:57 58° E 23:16:59 58° E 23:20:24 10° N
Cosmos 2266 Rocket 4.2 23:11:38 10° N 23:17:53 61° ENE 23:20:37 34° SE
Cosmos 1733 Rocket 3.5 23:15:11 10° NNW 23:19:33 54° W 23:20:49 39° SSW
Cosmos 1680 Rocket 4.3 23:14:48 10° NNW 23:19:54 44° ENE 23:22:24 26° ESE
Meteor 2-4 Rocket 4.3 23:19:46 22° SW 23:23:26 54° WNW 23:29:02 10° N
Cosmos 1908 Rocket 3.6 23:21:51 10° N 23:26:12 66° ENE 23:27:06 50° SE
Okean 3 4.3 23:26:58 35° ESE 23:27:24 36° E 23:31:17 10° NNE
Cosmos 2279 Rocket 4.0 23:24:19 30° SSW 23:27:31 75° W 23:33:46 10° N
Cosmos 2333 Rocket 3.7 23:26:56 19° ESE 23:27:43 20° E 23:31:39 10° NE
Cosmos 1862 Rocket 3.9 23:28:10 39° SW 23:29:38 62° WNW 23:34:05 10° N
Cosmos 1805 3.1 23:26:19 10° NNW 23:30:13 79° W 23:30:41 66° SSW
Cosmos 1980 Rocket 3.5 23:26:37 10° WSW 23:31:51 38° NW 23:37:08 10° NNE
ERS-2 2.5 23:29:19 10° NNE 23:32:44 49° E 23:32:44 49° E
Meteor 2-10 4.0 23:30:17 10° N 23:35:41 86° ENE 23:37:21 45° SSE
Cosmos 1898 Rocket 4.1 23:35:22 38° SE 23:36:28 43° ESE 23:41:29 10° NE
SJ 16-02 3.1 23:33:02 11° WSW 23:36:33 28° WNW 23:40:20 10° N
Cosmos 2322 Rocket 2.3 23:34:57 42° SSE 23:36:37 60° ESE 23:42:08 10° NE
H-2A R/B 3.3 23:33:21 10° NNE 23:37:27 78° ESE 23:38:02 63° SSE
Cosmos 1766 3.3 23:34:00 10° N 23:37:55 66° E 23:38:21 60° ESE
Cosmos 990 Rocket 4.0 23:37:50 45° SSE 23:39:16 65° ESE 23:44:29 10° NNE
Cosmos 2344 4.4 23:35:25 10° WSW 23:42:33 50° NW 23:50:24 10° NE
Cosmos 1356 3.4 23:42:57 73° NW 23:42:57 73° NW 23:46:07 10° N
Meteor 1-15 Rocket 4.2 23:38:20 10° N 23:43:58 77° ENE 23:46:02 41° SSE
Meteor 1-12 Rocket 4.3 23:43:51 10° NNW 23:49:51 79° W 23:52:02 41° S
Meteor 1-4 Rocket 3.2 23:47:11 10° NNW 23:50:22 41° W 23:50:22 41° W
NOSS 2-1 (C) 2.9 23:50:45 72° N 23:50:45 72° N 23:53:49 10° NE
Cosmos 1844 Rocket 2.7 23:45:12 10° NNW 23:50:51 78° ENE 23:53:02 38° SE
NOSS 2-1 (D) 2.9 23:52:22 70° NNW 23:52:22 70° NNW 23:55:30 10° NE
USA 215 3.4 23:46:41 10° NE 23:53:15 77° NNW 23:59:48 10° WSW
Cosmos 1726 1.9 23:50:08 10° N 23:53:49 88° E 23:53:54 85° SSE
